Home > Time Zones > World Clock > Weather > Egypt > Cairo > Past weeks

Flag for Egypt Weather past 2 weeks in Cairo, Egypt

Now
91 °F

Sunny.


Feels Like: 92 °F
Forecast: 72 / 98 °F
Wind: 2 mph from Northwest

Location: Cairo Airport

Current Time: Aug 29, 2014 at 1:27:20 PM

Latest Report: Aug 29, 2014 at 1:00 PM


Visibility: 10 mi

Pressure: 29.80 "Hg

Humidity: 38%

Dew point: 63 °F

Location of CairoLocation

Historic Weather in Cairo — Graph

°F

Cairo temperature yesterday

Maximum temperature yesterday: 95 °F (at 5:00 PM)
Minimum temperature yesterday: 77 °F (at 3:30 AM)
Average temperature yesterday: 85 °F

Past Weeks' High & Low Weather Summary

 TemperatureHumidityPressure
High100 °F (Aug 24, 4:00 PM)94% (Aug 16, 7:30 AM)29.98 "Hg (Aug 16, 7:30 AM)
Low73 °F (Aug 29, 7:00 AM)18% (Aug 26, 4:30 PM)29.65 "Hg (Aug 17, 3:00 PM)
Average85 °F57%29.81 "Hg
* Reported Aug 14 12:00 Noon — Aug 29 12:30 PM, Cairo, Weather by CustomWeather, © 2014

Note: Actual official high and low records may vary slightly from our data, if they occured in-between our weather recording intervals... More about our weather records

Advertising

Cairo weather history for previous 24 hours

 ConditionsComfort  
Time TempWeatherWind HumidityBarometerVisibility
12:30 PM
Aug 29
91 °FSunny.5 mph36%29.80 "Hg10 mi
12:00 PM91 °FSunny.No wind46%29.83 "Hg10 mi
11:00 AM86 °FSunny.No wind52%29.83 "Hg10 mi
10:30 AM84 °FSunny.3 mph55%29.83 "Hg10 mi
10:00 AM82 °FSunny.No wind62%29.83 "Hg10 mi
9:30 AM81 °FSunny.3 mph70%29.83 "Hg10 mi
9:00 AM79 °FSunny.2 mph79%29.83 "Hg10 mi
8:30 AM79 °FSunny.No wind79%29.83 "Hg10 mi
8:00 AM77 °FSunny.3 mph83%29.80 "Hg10 mi
7:30 AM75 °FSunny.No wind83%29.80 "Hg10 mi
7:00 AM73 °FSunny.3 mph83%29.80 "Hg10 mi
6:30 AM75 °FSunny.5 mph78%29.80 "Hg10 mi
6:00 AM75 °FClear.5 mph74%29.77 "Hg10 mi
5:30 AM75 °FClear.2 mph78%29.77 "Hg10 mi
5:00 AM75 °FClear.3 mph78%29.77 "Hg10 mi
4:00 AM77 °FClear.3 mph74%29.80 "Hg10 mi
3:30 AM77 °FClear.3 mph74%29.77 "Hg10 mi
3:00 AM79 °FClear.5 mph74%29.77 "Hg10 mi
2:30 AM79 °FClear.5 mph70%29.77 "Hg10 mi
2:00 AM81 °FClear.6 mph66%29.80 "Hg10 mi
1:30 AM81 °FClear.6 mph66%29.80 "Hg10 mi
1:00 AM81 °FClear.6 mph66%29.80 "Hg10 mi
12:30 AM81 °FClear.8 mph70%29.80 "Hg10 mi
12:00 AM81 °FClear.8 mph70%29.80 "Hg10 mi
11:30 PM
Aug 28
82 °FClear.7 mph66%29.80 "Hg10 mi
11:00 PM82 °FClear.7 mph66%29.80 "Hg10 mi
10:30 PM84 °FClear.10 mph62%29.80 "Hg10 mi
10:00 PM84 °FClear.10 mph62%29.80 "Hg10 mi
9:30 PM86 °FClear.10 mph62%29.80 "Hg10 mi
9:00 PM88 °FClear.9 mph43%29.77 "Hg10 mi
8:30 PM90 °FClear.10 mph41%29.77 "Hg10 mi
8:00 PM90 °FClear.9 mph43%29.77 "Hg10 mi
7:30 PM91 °FClear.8 mph36%29.74 "Hg10 mi
7:00 PM91 °FSunny.8 mph34%29.74 "Hg10 mi
6:30 PM93 °FSunny.9 mph23%29.74 "Hg10 mi
6:00 PM93 °FSunny.9 mph23%29.74 "Hg10 mi
5:30 PM95 °FSunny.7 mph30%29.74 "Hg10 mi
5:00 PM95 °FSunny.7 mph30%29.74 "Hg10 mi
4:30 PM93 °FSunny.7 mph32%29.74 "Hg10 mi
4:00 PM93 °FSunny.7 mph34%29.74 "Hg10 mi
3:30 PM93 °FSunny.5 mph34%29.74 "Hg10 mi
3:00 PM93 °FSunny.6 mph41%29.74 "Hg10 mi
2:30 PM93 °FSunny.6 mph34%29.74 "Hg10 mi
2:00 PM93 °FSunny.7 mph39%29.77 "Hg10 mi
1:30 PM91 °FSunny.7 mph41%29.77 "Hg10 mi
1:00 PM90 °FSunny.6 mph41%29.77 "Hg10 mi
Weather by CustomWeather, © 2014

See weather overviewHow to use our weather pages